Regional Weather Roundup
Issued by NWS

Home | Current Version | Previous Version | Graphics & Text | Print | Product List | Glossary On
Versions: 1 2 3 4 5 6 7 8 9 10 11 12 13 14 15 16 17 18 19 20 21 22 23 24 25 26 27 28 29 30 31 32 33 34 35 36 37 38 39 40 41 42 43 44 45 46 47 48 49 50
414
ASUS43 KLSX 281657
RWRMO

WEATHER SUMMARY FOR MISSOURI
NATIONAL WEATHER SERVICE SPRINGFIELD MO
1200 PM CDT THU JUL 28 2016

NOTE: "FAIR" INDICATES FEW OR NO CLOUDS BELOW 12,000 FEET WITH NO
       SIGNIFICANT WEATHER AND/OR OBSTRUCTIONS TO VISIBILITY.
       CURRENT SKY AND/OR WEATHER CONDITIONS ARE NOT AVAILABLE FOR
       CHILLICOTHE AND FARMINGTON.

MOZ001>031-035>038-043-044-053-054-281800-
...NORTHERN AND WESTERN MISSOURI...

CITY           SKY/WX    TMP DP  RH WIND       PRES   REMARKS
KANSAS CTY INT MOSUNNY   85  68  56 N10       29.98S
LEE`S SUMMIT   SUNNY     85  70  60 N10       29.97S
ST JOSEPH      MOSUNNY   84  72  67 N9        29.97F

$$
MOZ066>068-077>081-088>096-101>105-281800-
...SOUTHWEST MISSOURI...

CITY           SKY/WX    TMP DP  RH WIND       PRES   REMARKS
SPRINGFIELD    MOSUNNY   88  73  61 W10       29.97S HX  95
JOPLIN         MOSUNNY   88  78  72 NW10      29.98S HX 101
BRANSON        MOSUNNY   84  75  74 CALM      30.00S HX  92

$$
MOZ032>034-039>042-045>050-055>058-069>072-281800-
...CENTRAL MISSOURI...

CITY           SKY/WX    TMP DP  RH WIND       PRES   REMARKS
COLUMBIA       NOT AVBL
JEFFERSON CITY MOSUNNY   86  71  60 NW6       29.92S HX  91
ROLLA          PTSUNNY   85  70  60 N7        29.94S
SEDALIA        MOSUNNY   86  73  65 NW3       29.96S HX  93

$$
MOZ051-052-059>065-281800-
...EAST CENTRAL MISSOURI...

CITY           SKY/WX    TMP DP  RH WIND       PRES   REMARKS
ST LOUIS INTL  MOSUNNY   88  73  61 N5        29.90F HX  95

$$
MOZ072>076-082>087-097>100-106>115-281800-
...SOUTH CENTRAL AND SOUTHEAST MISSOURI...

CITY           SKY/WX    TMP DP  RH WIND       PRES   REMARKS
CAPE GIRARDEAU MOSUNNY   82  75  79 VRB6      29.91F
POPLAR BLUFF   PTSUNNY   85  75  72 SW6       29.92R HX  93

$$



USA.gov is the U.S. government's official web portal to all federal, state and local government web resources and services.